Погода в Елкине

Россия / Ростовская область     47°18′45″N   40°29′42″E
темп.,
°C
ветер,
м/с
пор.,
м/с
влажн.,
%
обл.,
%
осадки,
мм/ч
давл.,
гПа
погр.,
м
10 апреля, сб
сб1000:00+5ссз3886100 0.0 1022312
03:00+5ссз31084100 0.0 1021362
06:00+4ссз41077100 0.0 1021369
09:00+6с5971100 0.3 1021596
12:00+8ссв4772100 0.0 1021672
15:00+7с3875100 0.1 1021458
18:00+8с3680100 0.0 1021203
21:00+6с3886100 0.0 1021176
11 апреля, вс
вс1100:00+7с41088100 0.0 1021359
03:00+6с4989100 0.2 1021366
06:00+6ссв4989100 0.2 1021419
09:00+7ссв5685100 0.2 1021609
12:00+9св5683100 0.0 1021677
15:00+11ссв4579100 0.1 1021745
18:00+10ссв5883100 0.0 1020377
21:00+9с51086100 0.0 1019249
12 апреля, пн
пн1200:00+9с41092100 0.0 1017254
03:00+10св3492100 0.1 101772
06:00+9всв3484100 0.7 101875
09:00+13в2371100 0.8 1019352
12:00+14вюв2364100 0.0 1019726
15:00+15вюв2463100 0.0 1020918
18:00+14зюз1173100 0.0 102029
21:00+11зсз3590100 0.0 1021122
13 апреля, вт
вт1300:00+11зсз2290100 0.0 102161
03:00+11ссз119098 0.0 102026
06:00+10св228999 0.0 102054
09:00+12в2276100 0.0 1021330
12:00+14вюв1171100 0.0 1020603
15:00+15юз3271100 0.0 1020803
18:00+12зюз468197 0.0 1021337
21:00+11з3780100 0.0 1022263
14 апреля, ср
ср1400:00+10зсз3584100 0.0 1022197
03:00+10зюз2490100 0.7 1021148
06:00+8зсз229527 1.0 102144
09:00+12сз228099 1.0 1020309
12:00+16всв2363100 0.0 1019827
15:00+19всв2445100 0.0 10171681
18:00+17в2362100 0.0 101763
21:00+13зсз116129 0.0 101611